{"data":{"norad_id":39574,"epoch":"2026-09-20T04:09:52.324992Z","epoch_age_seconds":46290,"freshness":"FRESH","line1":"1 39574U 14009C   26263.17352228  .00007246  00000+0  15769-3 0  9990","line2":"2 39574  64.9723 349.8374 0011015 263.1262  96.8625 15.45026362712481","mean_motion":15.45026362,"eccentricity":0.0011015,"inclination_deg":64.9723,"raan_deg":349.8374,"arg_perigee_deg":263.1262,"mean_anomaly_deg":96.8625,"bstar":0.00015769,"rev_number":71248,"period_min":93.202293204626,"perigee_km":423.80001819306,"apogee_km":438.80120925609,"semimajor_km":6809.4376137246,"source":"CELESTRAK","updated_at":"2026-09-20T09:00:33.895824Z"}}